Location: Hengforden
(52.3167°N, 6.1333°E)
Time: 15:21:40
(UTC+00:00)

Cosmos 1908 Rocket - Pass Details

Date: 14 June 2025
Orbit: 601 x 624 km, 82.5° (Epoch: 19 July)

Event Time Altitude Azimuth Distance (km) Brightness Sun altitude
Rises 23:33:05 0° 345° (NNW) 2,880 8.6 -14.4°
Reaches altitude 10° 23:35:21 10° 340° (NNW) 1,974 7.3 -14.4°
Maximum altitude 23:39:33 49° 266° (W) 799 4.1 -14.4°
Enters shadow 23:42:03 22° 201° (SSW) 1,339 4.7 -14.4°
